[[{"header":{"parameterUnit":"m.s-1","parameterCategory":1,"la1":30.2991,"la2":30.254,"lo1":-89.0895,"lo2":-89.0444,"dy":0.0017,"dx":0.0017,"nx":28,"ny":28,"refTime":"2023-03-30T21:00:00:Z","depth":0,"parameterNumber":2,"parameterNumberName":"U-component_of_WINDS"},"data":[0,0,0,0,0,0,0,0,0,0,0,0,0,0,0,0,0,0,0,0,0,0,0,0,0,0,0,0,0,0,0,0,0,0,0,0,0,0,0,0,0,0,0,0,0,0,0,0,0,0,0,0,0,0,0,0,0,0,-5.7067,-5.7068,0,-5.7149,-5.715,-5.7151,-5.7092,-5.709,-5.7087,-5.7085,-5.7167,-5.7171,-5.7176,0,0,0,0,0,0,0,0,0,0,0,0,0,-5.6858,-5.6863,-5.7067,-5.7068,-5.7069,-5.7149,-5.715,-5.7151,-5.7093,-5.709,-5.7086,-5.7083,-5.7165,-5.7171,-5.7176,0,0,0,0,0,0,0,0,0,0,0,0,0,-5.6946,-5.6864,-5.7067,-5.705,-5.7049,-5.7149,-5.715,-5.7152,-5.7093,-5.7089,-5.7086,-5.7082,-5.7163,-5.717,-5.7177,-5.7298,0,0,-5.7198,-5.7201,0,0,0,0,0,0,0,0,-5.6941,-5.6953,-5.7051,-5.7051,-5.705,-5.7107,-5.7107,-5.7201,-5.7094,-5.7076,-5.7085,-5.708,-5.715,-5.7158,-5.7182,-5.7302,-5.7305,-5.7199,-5.7203,-5.7206,-5.7208,0,0,0,0,0,0,0,-5.6935,-5.6949,-5.7099,-5.7053,-5.7052,-5.7037,-5.7045,-5.7124,-5.7134,-5.7078,-5.7074,-5.7084,-5.7149,-5.7175,-5.7183,-5.7307,-5.7199,-5.7205,-5.7209,-5.7212,-5.7529,-5.7533,0,0,0,0,0,0,-5.6931,-5.6945,-5.7097,-5.7102,-5.6985,-5.7044,-5.7053,-5.7092,-5.7133,-5.7135,-5.7088,-5.7081,-5.7165,-5.7175,-5.7186,-5.7328,-5.7206,-5.7212,-5.7216,-5.7525,-5.753,-5.7535,0,0,0,0,0,0,-5.6926,-5.6945,-5.7093,-5.7022,-5.704,-5.7052,-5.7096,-5.7096,-5.7122,-5.714,-5.7142,-5.7112,-5.7162,-5.7176,-5.727,-5.733,-5.7216,-5.7222,-5.752,-5.7527,-5.7533,-5.7615,0,0,0,0,0,0,-5.6921,-5.6943,-5.699,-5.7024,-5.7044,-5.7177,-5.71,-5.7101,-5.7134,-5.7127,-5.7164,-5.7166,-5.716,-5.726,-5.7277,-5.7338,-5.7227,-5.7515,-5.7523,-5.7531,-5.7607,-5.7624,-5.7638,0,0,0,0,0,-5.6913,-5.7009,-5.6992,-5.7011,-5.7102,-5.7181,-5.7192,-5.7184,-5.714,-5.7185,-5.7198,-5.7165,-5.7322,-5.7271,-5.7289,-5.7352,-5.7511,-5.7521,-5.753,-5.76,-5.762,-5.7637,0,0,0,0,0,0,-5.698,-5.7013,-5.6995,-5.7105,-5.7141,-5.7171,-5.7228,-5.7206,-5.7254,-5.7245,-5.7232,-5.7241,-5.734,-5.7356,-5.7298,-5.7471,-5.7409,-5.7423,-5.7456,-5.7476,-5.7491,-5.7483,-5.7233,0,0,0,0,0,-5.7008,-5.707,-5.7095,-5.719,-5.7209,-5.7216,-5.725,-5.7241,-5.7277,-5.7291,-5.731,-5.7346,-5.7403,-5.7441,-5.7495,-5.7611,-5.7617,-5.7664,-5.7679,-5.7692,-5.7702,-5.7763,-5.7784,-5.7567,-5.7567,-5.7566,0,0,-5.7066,-5.7092,-5.7131,-5.7204,-5.7231,-5.7294,-5.7229,-5.7299,-5.7345,-5.7302,-5.7391,-5.7407,-5.7447,-5.7552,-5.7599,-5.7568,-5.7765,-5.7704,-5.7714,-5.7718,-5.7775,-5.7796,-5.7814,-5.7573,-5.7572,-5.7571,0,0,-5.7202,-5.7229,-5.731,-5.7338,-5.738,-5.7384,-5.7404,-5.7439,-5.7447,-5.7538,-5.7506,-5.7562,-5.7661,-5.769,-5.7718,-5.7868,-5.7839,-5.7886,-5.7965,-5.8024,-5.8041,-5.8056,-5.8107,-5.8126,-5.7898,-5.7898,-5.7898,0,-5.7267,-5.7362,-5.7354,-5.7426,-5.7459,-5.7425,-5.7506,-5.7534,-5.7591,-5.7614,-5.758,-5.7704,-5.7728,-5.7839,-5.7875,-5.79,-5.7921,-5.788,-5.804,-5.8055,-5.8069,-5.8117,-5.8137,-5.7903,-5.7903,-5.7902,-5.7902,0,-5.7439,-5.7506,-5.7566,-5.7622,-5.7663,-5.7739,-5.7742,-5.7784,-5.7773,-5.7781,-5.7873,-5.7902,-5.796,-5.7987,-5.7976,-5.8097,-5.8076,-5.8042,-5.7978,-5.8095,-5.814,-5.8159,-5.7911,-5.7909,-5.7907,-5.7906,0,0,-5.7616,-5.7669,-5.7691,-5.7716,-5.7761,-5.7811,-5.7887,-5.7945,-5.798,-5.8022,-5.8083,-5.8169,-5.8138,-5.8169,-5.8162,-5.8215,-5.833,-5.8174,-5.8174,-5.8199,-5.8462,-5.8485,-5.8506,-5.8313,-5.8317,-5.832,-5.8457,0,-5.7752,-5.7883,-5.7879,-5.8001,-5.8061,-5.8031,-5.8097,-5.8131,-5.8142,-5.8194,-5.8206,-5.8266,-5.8221,-5.824,-5.8292,-5.8305,-5.8382,-5.8295,-5.8368,-5.8371,-5.8355,-5.853,-5.8555,-5.8683,-5.8475,-5.8478,-5.8481,0,-5.7927,-5.7975,-5.8103,-5.8139,-5.8164,-5.8223,-5.8276,-5.8327,-5.8366,-5.837,-5.8407,-5.8391,-5.8467,-5.8406,-5.8509,-5.8451,-5.8481,-5.8492,-5.8497,-5.85,-5.843,-5.8535,-5.8724,-5.8742,-5.8509,-5.8507,-5.8505,0,-5.8039,-5.8136,-5.8225,-5.8248,-5.8293,-5.8334,-5.8355,-5.839,-5.8425,-5.8472,-5.8495,-5.855,-5.858,-5.8623,-5.8623,-5.8578,-5.8727,-5.8666,-5.8731,-5.8731,-5.8759,-5.8757,-5.8953,-5.8786,-5.8786,-5.8785,-5.8785,0,-5.8189,-5.8268,-5.8276,-5.833,-5.8417,-5.8413,-5.8499,-5.8516,-5.8548,-5.8604,-5.8583,-5.8636,-5.8635,-5.8689,-5.869,-5.8775,-5.8789,-5.8793,-5.8792,-5.8793,-5.8792,-5.8809,-5.8799,-5.8791,-5.8789,-5.8788,-5.8788,0,-5.8327,-5.8336,-5.843,-5.8466,-5.8477,-5.8539,-5.8569,-5.8621,-5.8631,-5.8702,-5.8719,-5.8734,-5.8797,-5.8803,-5.8876,-5.8877,-5.8978,-5.8969,-5.8965,-5.8962,-5.9025,-5.9018,-5.9236,-5.9263,-5.9082,-5.9084,-5.9085,0,-5.842,-5.848,-5.8522,-5.8559,-5.8582,-5.8642,-5.8678,-5.8677,-5.8715,-5.8765,-5.881,-5.8872,-5.892,-5.9022,-5.9039,-5.9095,-5.9085,-5.9158,-5.9092,-5.9092,-5.9082,-5.9077,-5.9082,-5.9168,-5.917,-5.9172,-5.9173,0,-5.8583,-5.8585,-5.8638,-5.8694,-5.8737,-5.8781,-5.8821,-5.8853,-5.8857,-5.8901,-5.8966,-5.9004,-5.9079,-5.9139,-5.9194,-5.9215,-5.9195,-5.9195,-5.9212,-5.9211,-5.9205,-5.9206,-5.8995,-5.9188,-5.9187,-5.9186,-5.9185,-5.9184,-5.8699,-5.8751,-5.8789,-5.8848,-5.8879,-5.8918,-5.8968,-5.8985,-5.9039,-5.9099,-5.9097,-5.9167,-5.9205,-5.9277,-5.9303,-5.9358,-5.9333,-5.9359,-5.9365,-5.937,-5.9375,-5.92,-5.9368,-5.9368,-5.9368,-5.9367,-5.9367,0,-5.8858,-5.8882,-5.8938,-5.8995,-5.9043,-5.9022,-5.9066,-5.9106,-5.9169,-5.9207,-5.9255,-5.9329,-5.9389,-5.9412,-5.9469,-5.9509,-5.9501,-5.9524,-5.9518,-5.9523,-5.9396,-5.9373,-5.9529,-5.9529,-5.9529,-5.9529,-5.9529,-5.9529,-5.8946,-5.9032,-5.9039,-5.9139,-5.9162,-5.9231,-5.9258,-5.9294,-5.9323,-5.9407,-5.9456,-5.9472,-5.9503,-5.9563,-5.9616,-5.9622,-5.9642,-5.9669,-5.967,-5.9549,-5.9532,-5.9517,-5.9495,-5.9674,-5.9674,-5.9792,-5.9793,-5.9794]},{"header":{"parameterUnit":"m.s-1","parameterCategory":1,"la1":30.2991,"la2":30.254,"lo1":-89.0895,"lo2":-89.0444,"dy":0.0017,"dx":0.0017,"nx":28,"ny":28,"refTime":"2023-03-30T21:00:00:Z","depth":0,"parameterNumber":3,"parameterNumberName":"V-component_of_WINDS"},"data":[0,0,0,0,0,0,0,0,0,0,0,0,0,0,0,0,0,0,0,0,0,0,0,0,0,0,0,0,0,0,0,0,0,0,0,0,0,0,0,0,0,0,0,0,0,0,0,0,0,0,0,0,0,0,0,0,0,0,3.6477,3.6477,0,3.6533,3.6534,3.6534,3.6544,3.6543,3.6543,3.6542,3.6595,3.6597,3.6599,0,0,0,0,0,0,0,0,0,0,0,0,0,3.6374,3.6376,3.6477,3.6477,3.6478,3.6533,3.6534,3.6534,3.6544,3.6543,3.6542,3.6542,3.6595,3.6597,3.6599,0,0,0,0,0,0,0,0,0,0,0,0,0,3.6423,3.6376,3.6476,3.6489,3.6491,3.6533,3.6534,3.6535,3.6544,3.6543,3.6542,3.6542,3.6594,3.6597,3.66,3.6631,0,0,3.6608,3.6609,0,0,0,0,0,0,0,0,3.642,3.6427,3.6487,3.6488,3.649,3.6531,3.6517,3.6567,3.6544,3.6524,3.6542,3.6541,3.6574,3.6579,3.6591,3.6634,3.6636,3.6608,3.661,3.6611,3.6612,0,0,0,0,0,0,0,3.6417,3.6424,3.6499,3.6488,3.649,3.6491,3.6497,3.6526,3.6552,3.6525,3.6526,3.6533,3.6575,3.6588,3.6592,3.6637,3.6608,3.6611,3.6613,3.6614,3.671,3.6711,0,0,0,0,0,0,3.6412,3.6421,3.6497,3.65,3.6453,3.6494,3.6501,3.6518,3.6552,3.6556,3.6533,3.6533,3.6583,3.6589,3.6594,3.6634,3.6611,3.6614,3.6615,3.6709,3.671,3.6711,0,0,0,0,0,0,3.6409,3.6418,3.6495,3.6461,3.6471,3.6496,3.6516,3.652,3.6533,3.6558,3.6562,3.6542,3.6583,3.659,3.6622,3.6636,3.6615,3.6618,3.6708,3.6709,3.671,3.6713,0,0,0,0,0,0,3.6406,3.6417,3.643,3.6462,3.6473,3.6523,3.6517,3.6521,3.6538,3.6538,3.6567,3.6571,3.6583,3.6618,3.6625,3.6639,3.662,3.6707,3.6708,3.671,3.6712,3.6714,3.6716,0,0,0,0,0,3.6403,3.6427,3.6431,3.644,3.649,3.6524,3.653,3.6545,3.6539,3.6552,3.6568,3.657,3.6633,3.6621,3.6629,3.6644,3.6706,3.6708,3.671,3.6711,3.6714,3.6716,0,0,0,0,0,0,3.6394,3.6431,3.6436,3.6471,3.6495,3.6525,3.6542,3.6547,3.6571,3.657,3.6585,3.6592,3.6624,3.6637,3.6623,3.6677,3.6669,3.6673,3.6667,3.667,3.6672,3.6668,3.6622,0,0,0,0,0,3.6397,3.6423,3.6454,3.6482,3.6494,3.6516,3.6531,3.6541,3.6565,3.6574,3.6593,3.6615,3.664,3.6656,3.668,3.6714,3.6721,3.6729,3.6731,3.6733,3.6735,3.6755,3.6759,3.6717,3.6717,3.6717,0,0,3.6402,3.6426,3.6441,3.6481,3.65,3.6526,3.6524,3.6551,3.657,3.6578,3.661,3.6625,3.6651,3.6685,3.67,3.6697,3.6749,3.6735,3.6736,3.6738,3.6758,3.6762,3.6765,3.6719,3.6719,3.6718,0,0,3.6425,3.6445,3.6472,3.6492,3.6522,3.6537,3.6543,3.6574,3.6585,3.6618,3.6625,3.6647,3.669,3.6708,3.6723,3.6755,3.6758,3.6763,3.6774,3.6793,3.6797,3.68,3.6811,3.6815,3.6766,3.6766,3.6766,0,3.6427,3.6467,3.6485,3.6512,3.653,3.6541,3.6568,3.6586,3.6621,3.6633,3.6629,3.6684,3.6701,3.674,3.6749,3.676,3.6768,3.6759,3.6795,3.6798,3.6801,3.6812,3.6817,3.6766,3.6766,3.6766,3.6766,0,3.6469,3.6497,3.6515,3.6551,3.6571,3.6598,3.6619,3.6636,3.6645,3.666,3.6694,3.6716,3.6746,3.6756,3.6763,3.6796,3.6793,3.6792,3.6784,3.6805,3.6816,3.682,3.6766,3.6766,3.6766,3.6766,0,0,3.6486,3.6534,3.654,3.6557,3.6592,3.6613,3.6641,3.6672,3.6687,3.6712,3.6735,3.6772,3.6772,3.6789,3.6798,3.6815,3.684,3.6812,3.6813,3.6817,3.6878,3.6879,3.6883,3.6843,3.6844,3.6845,3.6876,0,3.6513,3.6564,3.6581,3.6623,3.665,3.6661,3.6686,3.6709,3.6724,3.6748,3.6764,3.6791,3.6788,3.6799,3.6816,3.6833,3.6853,3.6832,3.6864,3.6865,3.6857,3.6889,3.6889,3.6918,3.688,3.6881,3.6882,0,3.655,3.6578,3.6623,3.6657,3.6668,3.669,3.672,3.6743,3.677,3.678,3.6801,3.681,3.6838,3.683,3.687,3.6855,3.6869,3.688,3.6882,3.6884,3.6874,3.6893,3.6928,3.6932,3.6889,3.6888,3.6888,0,3.6559,3.6607,3.6641,3.6655,3.6695,3.671,3.6727,3.6753,3.6771,3.6798,3.6809,3.6838,3.6853,3.6875,3.6891,3.6884,3.693,3.6922,3.6939,3.6938,3.6947,3.6946,3.6984,3.6957,3.6957,3.6957,3.6957,0,3.6587,3.6614,3.6646,3.6666,3.6697,3.6717,3.6747,3.6764,3.6788,3.6812,3.6823,3.6845,3.6865,3.689,3.6903,3.6934,3.6941,3.6949,3.6952,3.6948,3.6947,3.6957,3.6955,3.6958,3.6958,3.6957,3.6957,0,3.66,3.6623,3.6661,3.6696,3.6706,3.6727,3.6756,3.6777,3.6793,3.6823,3.6831,3.6857,3.6887,3.6906,3.6942,3.6951,3.6985,3.6988,3.6977,3.6978,3.6993,3.6991,3.7039,3.7046,3.7014,3.7014,3.7015,0,3.6617,3.6638,3.6677,3.6695,3.6712,3.674,3.6759,3.678,3.6799,3.6833,3.6849,3.688,3.6905,3.6952,3.6973,3.7001,3.7004,3.7019,3.7008,3.7004,3.7004,3.7003,3.7005,3.702,3.7021,3.7021,3.7021,0,3.6643,3.6654,3.6682,3.6714,3.6737,3.6763,3.6789,3.6802,3.6827,3.6848,3.688,3.69,3.6939,3.6969,3.7,3.7016,3.7023,3.7025,3.703,3.7025,3.7018,3.7022,3.6981,3.7023,3.7023,3.7023,3.7022,3.7022,3.6659,3.6679,3.671,3.6741,3.6763,3.6788,3.6809,3.6829,3.6856,3.6891,3.6901,3.6934,3.6961,3.7004,3.7021,3.7046,3.7044,3.7052,3.7054,3.7055,3.7056,3.7015,3.7052,3.7052,3.7052,3.7052,3.7052,0,3.6686,3.6707,3.6735,3.6773,3.6797,3.6803,3.6833,3.6852,3.6882,3.6908,3.6934,3.697,3.7,3.7024,3.7055,3.707,3.7074,3.7078,3.7076,3.708,3.7055,3.7048,3.7074,3.7074,3.7074,3.7074,3.7074,3.7074,3.6703,3.6738,3.6752,3.6798,3.6819,3.6853,3.6869,3.6892,3.6913,3.6953,3.6979,3.6996,3.7021,3.7054,3.7082,3.7088,3.7098,3.7101,3.7108,3.7084,3.7082,3.7079,3.7072,3.7104,3.7104,3.7131,3.7131,3.7131]}]]